Location: Chomutov
(50.4500°N, 13.4333°E)
Time: 18:53:23
(UTC+02:00)

FO-29 - Pass Details

Date: 26 September 2021
Orbit: 800 x 1321 km, 98.6° (Epoch: 23 October)

Event Time Altitude Azimuth Distance (km) Brightness Sun altitude
Exits shadow 20:13:51 16° 114° (ESE) 2,831 11.3 -13.2°
Maximum altitude 20:19:10 37° 58° (ENE) 1,956 10.7 -14.1°
Drops below altitude 10° 20:26:08 10° 356° (N) 3,354 12.6 -15.1°
Sets 20:29:04 0° 348° (NNW) 4,307 13.3 -15.6°
